Regional Weather Roundup
Issued by NWS

Home | Current Version | Previous Version | Graphics & Text | Print | Product List | Glossary On
Versions: 1 2 3 4 5 6 7 8 9 10 11 12 13 14 15 16 17 18 19 20 21 22 23 24 25 26 27 28 29 30 31 32 33 34 35 36 37 38 39 40 41 42 43 44 45 46 47 48 49 50
000
ASUS45 KTFX 291510
RWRMT
MONTANA REGIONAL WEATHER ROUNDUP
NATIONAL WEATHER SERVICE GREAT FALLS MT
900 AM MDT FRI MAY 29 2015

NOTE: "FAIR" INDICATES FEW OR NO CLOUDS BELOW 12000 FEET WITH NO
SIGNIFICANT WEATHER AND/OR OBSTRUCTIONS TO VISIBILITY.

MTZ001>007-043-291600-
WEST OF THE DIVIDE

CITY           SKY/WX    TMP DP  RH WIND       PRES   REMARKS
KALISPELL      SUNNY     59  43  55 N5        30.18F
MISSOULA       SUNNY     58  42  55 E13       30.20F
BUTTE          MOSUNNY   50  40  68 NE5       30.28S
MULLAN PASS    SUNNY     45  41  86 SE9G17    30.20S
DEER LODGE       N/A     55  45  67 SE7       30.28F
EUREKA           N/A     57  46  67 CALM      30.18F
HAMILTON         N/A     55  45  67 SW3       30.20F
LIBBY            N/A     55  48  76 CALM      30.19S
RONAN            N/A     59  48  66 CALM      30.21S
$$

MTZ008-052>055-291600-
SOUTHWEST MONTANA

CITY           SKY/WX    TMP DP  RH WIND       PRES   REMARKS
BOZEMAN        MOSUNNY   53  45  74 VRB3      30.27F
DILLON         CLOUDY    50  44  80 N5        30.28S
W YELLOWSTONE  PTSUNNY   45  37  76 SE6       30.32S
THREE FORKS      N/A     52  29  41 CALM      30.25S
$$

MTZ009-010-012-014-046-048-049-054-291600-
EAST SLOPES AND CENTRAL MONTANA

CITY           SKY/WX    TMP DP  RH WIND       PRES   REMARKS
CUT BANK       PTSUNNY   46  42  86 SE14      30.26S
GREAT FALLS    CLOUDY    47  43  86 E6        30.28S
MALMSTROM AFB  CLOUDY    47  44  89 NE6       30.29S
HELENA         MOSUNNY   53  44  71 E3        30.26F
$$

MTZ011-013-016-021-045-047-050-051-291600-
NORTH CENTRAL MONTANA

CITY           SKY/WX    TMP DP  RH WIND       PRES   REMARKS
HAVRE          SUNNY     50  43  77 E8        30.31S
LEWISTOWN      MOSUNNY   49  42  77 SE10      30.31S
N BAR RANCH    CLOUDY    43  39  87 SE7       30.35R
CHINOOK          N/A     48  39  71 E10       30.33F
FORT BENTON      N/A     50  43  76 NE7       30.31S
$$

MTZ017>020-022>027-061-062-291600-
NORTHEAST MONTANA

CITY           SKY/WX    TMP DP  RH WIND       PRES   REMARKS
GLASGOW        SUNNY     46  32  58 NE7       30.35R
JORDAN           N/A     47  35  63 NE8       30.35R
SIDNEY         CLOUDY    46  30  53 N7        30.32S
WOLF POINT     PTSUNNY   46  33  60 VRB6      30.36S
MALTA            N/A     49  37  63 NE2       30.31R
PLENTYWOOD       N/A     43  30  61 N5        30.34R
POPLAR           N/A     43  30  61 N9G16     30.36S
$$

MTZ028>42-056>058-291600-
SOUTHCENTRAL AND SOUTHEAST MONTANA

CITY           SKY/WX    TMP DP  RH WIND       PRES   REMARKS
BAKER          PTSUNNY   44  34  67 N12       30.29R
BILLINGS       CLOUDY    46  40  79 NE6       30.33S
LIVINGSTON     CLOUDY    48  47  96 E13       30.29S
MILES CITY     MOSUNNY   48  32  53 N13       30.33R
BIG TIMBER       N/A     45  45 100 E12       30.32S
LAUREL           N/A     47  40  76 NE2       30.29S
ROUNDUP          N/A     48  38  68 E1        30.22S
$$

REGIONAL REPORTS...DAKOTAS

CITY           SKY/WX    TMP DP  RH WIND       PRES   REMARKS
WILLISTON      CLOUDY    47  32  56 N10       30.32R
MINOT          CLOUDY    45  34  65 NW17G23   30.25R
DICKINSON      CLOUDY    45  33  63 N16       30.24R
BEACH          CLOUDY    45  34  65 N12G23    30.30R
CROSBY         CLOUDY    43  32  65 N9G18     30.33R
WATFORD CITY   CLOUDY    45  34  65 N14       30.28S
BISMARCK       CLOUDY    50  37  61 N22       30.21R
GRAND FORKS    CLOUDY    45  39  79 N29G35    30.13R
FARGO          CLOUDY    48  42  80 N28G38    30.08R
BUFFALO SD       N/A     47  42  83 N16       30.18R
RAPID CITY     LGT RAIN  47  46  97 N26G33    30.19R FOG
$$

REGIONAL REPORTS...WYOMING/IDAHO/WASHINGTON

CITY           SKY/WX    TMP DP  RH WIND       PRES   REMARKS
GILLETTE       CLOUDY    44  43  96 NW15      30.27R FOG
SHERIDAN       CLOUDY    44  42  93 NE10      30.32R FOG
BUFFALO WY     LGT RAIN  43  42  97 NE16G24   30.30R VSB<1/4
CODY           CLOUDY    46  45  93 NW5       30.31R
YELLOWSTONE LA   N/A     40  37  89 SE6       30.36R
IDAHO FALLS    SUNNY     54  45  71 N9        30.24S
SALMON         CLOUDY    52  45  76 CALM      30.22F
BOISE          MOSUNNY   66  46  48 SE13      30.11S
SPOKANE        PTSUNNY   61  51  70 NE10      30.07S
$$

REGIONAL REPORTS...ALBERTA

CITY           SKY/WX    TMP DP  RH WIND       PRES   REMARKS
EDMONTON       SUNNY     52  30  43 SE13      30.30F
CALGARY        CLOUDY    50  39  66 S14G21    30.23S
LETHBRIDGE     PTSUNNY   50  43  76 S17       30.24F
MEDICINE HAT   MOSUNNY   50  36  57 VRB3      30.31R
$$

REGIONAL REPORTS...SASKATCHEWAN

CITY           SKY/WX    TMP DP  RH WIND       PRES   REMARKS
SWIFT CURRENT  MOSUNNY   45  30  57 SE6       30.35R
REGINA         MOSUNNY   45  28  53 N12       30.36R
SASKATOON      MOSUNNY   45  27  49 CALM      30.42S
$$



USA.gov is the U.S. government's official web portal to all federal, state and local government web resources and services.